H1 CPF 2 NER 2025 12 8 9 342 01 glonass131 H2 1301901 9131 39155 2025 12 8 0 0 0 2025 12 11 23 45 0 900 1 1 0 0 0 1 H9 10 0 61017 0.00000 0 12333722.048 9890941.699 20088747.925 10 0 61017 900.00000 0 9779739.904 9753330.667 21508250.656 10 0 61017 1800.00000 0 7073847.380 9814894.346 22512641.438 10 0 61017 2700.00000 0 4283777.921 10090149.503 23082365.852 10 0 61017 3600.00000 0 1479660.911 10581313.462 23206195.179 10 0 61017 4500.00000 0 -1268639.806 11278124.146 22881456.028 10 0 61017 5400.00000 0 -3894176.621 12158195.174 22114102.422 10 0 61017 6300.00000 0 -6335450.824 13187893.718 20918627.478 10 0 61017 7200.00000 0 -8538723.896 14323707.476 19317814.282 10 0 61017 8100.00000 0 -10460012.417 15514046.749 17342328.225 10 0 61017 9000.00000 0 -12066683.591 16701409.270 15030155.767 10 0 61017 9900.00000 0 -13338584.023 17824819.469 12425897.673 10 0 61017 10800.00000 0 -14268653.045 18822441.465 9579927.770 10 0 61017 11700.00000 0 -14862993.015 19634256.555 6547431.349 10 0 61017 12600.00000 0 -15140391.547 20204691.889 3387340.496 10 0 61017 13500.00000 0 -15131314.001 20485087.894 161186.367 10 0 61017 14400.00000 0 -14876407.454 20435897.699 -3068108.974 10 0 61017 15300.00000 0 -14424578.809 20028522.377 -6237476.514 10 0 61017 16200.00000 0 -13830728.775 19246700.897 -9284953.912 10 0 61017 17100.00000 0 -13153238.930 18087392.496 -12150921.993 10 0 61017 18000.00000 0 -12451320.451 16561111.130 -14779297.202 10 0 61017 18900.00000 0 -11782339.488 14691695.481 -17118654.026 10 0 61017 19800.00000 0 -11199235.417 12515522.754 -19123252.924 10 0 61017 20700.00000 0 -10748144.192 10080198.872 -20753951.533 10 0 61017 21600.00000 0 -10466329.777 7442780.557 -21978979.842 10 0 61017 22500.00000 0 -10380512.989 4667605.068 -22774563.350 10 0 61017 23400.00000 0 -10505669.263 1823820.191 -23125381.875 10 0 61017 24300.00000 0 -10844346.121 -1017280.359 -23024855.644 10 0 61017 25200.00000 0 -11386528.270 -3785003.196 -22475254.186 10 0 61017 26100.00000 0 -12110054.326 -6411967.367 -21487627.539 10 0 61017 27000.00000 0 -12981565.414 -8836668.778 -20081563.043 10 0 61017 27900.00000 0 -13957943.179 -11005790.516 -18284774.550 10 0 61017 28800.00000 0 -14988174.132 -12876164.125 -16132534.222 10 0 61017 29700.00000 0 -16015559.566 -14416302.410 -13666960.004 10 0 61017 30600.00000 0 -16980176.252 -15607442.892 -10936174.457 10 0 61017 31500.00000 0 -17821483.192 -16444061.958 -7993352.865 10 0 61017 32400.00000 0 -18480964.320 -16933842.137 -4895680.242 10 0 61017 33300.00000 0 -18904696.347 -17097097.709 -1703238.197 10 0 61017 34200.00000 0 -19045734.676 -16965686.175 1522156.453 10 0 61017 35100.00000 0 -18866218.695 -16581454.127 4718139.123 10 0 61017 36000.00000 0 -18339109.809 -15994284.715 7822988.688 10 0 61017 36900.00000 0 -17449491.132 -15259829.714 10776800.630 10 0 61017 37800.00000 0 -16195376.004 -14437021.471 13522621.095 10 0 61017 38700.00000 0 -14587992.607 -13585468.319 16007521.842 10 0 61017 39600.00000 0 -12651533.317 -12762841.258 18183597.509 10 0 61017 40500.00000 0 -10422378.902 -12022359.473 20008868.171 10 0 61017 41400.00000 0 -7947828.647 -11410477.932 21448071.876 10 0 61017 42300.00000 0 -5284387.219 -10964871.916 22473333.657 10 0 61017 43200.00000 0 -2495676.569 -10712801.292 23064699.482 10 0 61017 44100.00000 0 349943.711 -10669922.166 23210525.609 10 0 61017 45000.00000 0 3181952.376 -10839595.636 22907715.867 10 0 61017 45900.00000 0 5930335.498 -11212723.547 22161801.598 10 0 61017 46800.00000 0 8528240.764 -11768119.910 20986861.287 10 0 61017 47700.00000 0 10914509.317 -12473404.968 19405279.341 10 0 61017 48600.00000 0 13035981.441 -13286387.341 17447346.118 10 0 61017 49500.00000 0 14849480.729 -14156879.300 15150704.084 10 0 61017 50400.00000 0 16323393.552 -15028871.621 12559647.946 10 0 61017 51300.00000 0 17438776.643 -15842978.639 9724289.688 10 0 61017 52200.00000 0 18189944.522 -16539051.714 6699602.494 10 0 61017 53100.00000 0 18584509.994 -17058850.963 3544360.681 10 0 61017 54000.00000 0 18642873.869 -17348661.407 319995.559 10 0 61017 54900.00000 0 18397183.662 -17361740.865 -2910610.315 10 0 61017 55800.00000 0 17889804.144 -17060493.112 -6084365.904 10 0 61017 56700.00000 0 17171364.104 -16418270.888 -9139225.455 10 0 61017 57600.00000 0 16298462.647 -15420728.814 -12015426.448 10 0 61017 58500.00000 0 15331133.665 -14066665.567 -14656684.841 10 0 61017 59400.00000 0 14330178.042 -12368316.794 -17011321.545 10 0 61017 60300.00000 0 13354479.230 -10351084.297 -19033295.564 10 0 61017 61200.00000 0 12458418.548 -8052711.699 -20683121.449 10 0 61017 62100.00000 0 11689502.049 -5521941.055 -21928651.590 10 0 61017 63000.00000 0 11086301.213 -2816707.424 -22745707.193 10 0 61017 63900.00000 0 10676795.651 -1948.403 -23118545.417 10 0 61017 64800.00000 0 10477187.972 2852878.058 -23040154.099 10 0 61017 65700.00000 0 10491240.122 5676462.151 -22512369.403 10 0 61017 66600.00000 0 10710157.574 8398384.122 -21545815.686 10 0 61017 67500.00000 0 11113023.965 10951814.386 -20159670.698 10 0 61017 68400.00000 0 11667765.144 13276059.149 -18381262.745 10 0 61017 69300.00000 0 12332599.104 15318846.143 -16245509.850 10 0 61017 70200.00000 0 13057907.953 17038256.874 -13794213.871 10 0 61017 71100.00000 0 13788450.653 18404227.256 -11075225.138 10 0 61017 72000.00000 0 14465821.508 19399557.170 -8141495.460 10 0 61017 72900.00000 0 15031049.760 20020390.348 -5050039.041 10 0 61017 73800.00000 0 15427230.514 20276148.276 -1860822.255 10 0 61017 74700.00000 0 15602076.649 20188924.425 1364395.919 10 0 61017 75600.00000 0 15510285.450 19792367.290 4563250.537 10 0 61017 76500.00000 0 15115621.883 19130101.428 7673962.162 10 0 61017 77400.00000 0 14392632.891 18253754.282 10636511.351 10 0 61017 78300.00000 0 13327922.312 17220671.976 13393775.010 10 0 61017 79200.00000 0 11920934.251 16091419.349 15892604.606 10 0 61017 80100.00000 0 10184212.991 14927167.888 18084827.586 10 0 61017 81000.00000 0 8143128.533 13787079.042 19928154.889 10 0 61017 81900.00000 0 5835078.335 12725790.191 21386979.193 10 0 61017 82800.00000 0 3308196.652 11791106.168 22433050.235 10 0 61017 83700.00000 0 619622.618 11021990.816 23046015.628 10 0 61017 84600.00000 0 -2166604.276 10446941.037 23213817.502 10 0 61017 85500.00000 0 -4981937.458 10082810.541 22932937.398 10 0 61018 0.00000 0 -7755909.493 9934132.605 22208484.127 10 0 61018 900.00000 0 -10418808.786 9992971.140 21054121.013 10 0 61018 1800.00000 0 -12904334.780 10239308.256 19491832.949 10 0 61018 2700.00000 0 -15152128.315 10641954.254 17551533.938 10 0 61018 3600.00000 0 -17110069.184 11159944.814 15270520.716 10 0 61018 4500.00000 0 -18736246.633 11744369.219 12692779.853 10 0 61018 5400.00000 0 -20000519.340 12340554.999 9868159.149 10 0 61018 6300.00000 0 -20885597.888 12890518.477 6851417.154 10 0 61018 7200.00000 0 -21387602.095 13335578.379 3701167.775 10 0 61018 8100.00000 0 -21516067.417 13619021.591 478739.763 10 0 61018 9000.00000 0 -21293397.966 13688706.703 -2753026.590 10 0 61018 9900.00000 0 -20753787.517 13499492.587 -5931021.021 10 0 61018 10800.00000 0 -19941653.176 13015385.933 -8993117.166 10 0 61018 11700.00000 0 -18909647.909 12211313.172 -11879411.950 10 0 61018 12600.00000 0 -17716336.916 11074438.144 -14533423.566 10 0 61018 13500.00000 0 -16423637.870 9604966.514 -16903221.923 10 0 61018 14400.00000 0 -15094135.626 7816400.271 -18942466.933 10 0 61018 15300.00000 0 -13788387.506 5735229.808 -20611332.136 10 0 61018 16200.00000 0 -12562335.564 3400075.669 -21877294.059 10 0 61018 17100.00000 0 -11464937.214 860316.103 -22715770.966 10 0 61018 18000.00000 0 -10536115.615 -1825741.143 -23110598.303 10 0 61018 18900.00000 0 -9805116.782 -4593064.814 -23054332.038 10 0 61018 19800.00000 0 -9289342.212 -7372390.040 -22548375.061 10 0 61018 20700.00000 0 -8993704.774 -10092886.455 -21602925.717 10 0 61018 21600.00000 0 -8910532.758 -12684891.979 -20236751.411 10 0 61018 22500.00000 0 -9020023.278 -15082597.588 -18476793.773 10 0 61018 23400.00000 0 -9291222.708 -17226571.208 -16357615.212 10 0 61018 24300.00000 0 -9683489.652 -19066016.487 -13920699.748 10 0 61018 25200.00000 0 -10148375.815 -20560674.068 -11213623.520 10 0 61018 26100.00000 0 -10631843.046 -21682288.569 -8289112.751 10 0 61018 27000.00000 0 -11076721.327 -22415583.159 -5204008.643 10 0 61018 27900.00000 0 -11425303.156 -22758704.441 -2018160.061 10 0 61018 28800.00000 0 -11621964.809 -22723122.496 1206734.160 10 0 61018 29700.00000 0 -11615704.667 -22332993.448 4408311.063 10 0 61018 30600.00000 0 -11362492.941 -21624013.914 7524735.352 10 0 61018 31500.00000 0 -10827335.526 -20641817.171 10495875.149 10 0 61018 32400.00000 0 -9985966.886 -19439979.095 13264440.623 10 0 61018 33300.00000 0 -8826102.473 -18077717.453 15777065.450 10 0 61018 34200.00000 0 -7348199.176 -16617379.829 17985312.314 10 0 61018 35100.00000 0 -5565692.369 -15121823.657 19846585.315 10 0 61018 36000.00000 0 -3504699.216 -13651795.677 21324933.825 10 0 61018 36900.00000 0 -1203199.146 -12263417.797 22391734.092 10 0 61018 37800.00000 0 1290276.612 -11005881.964 23026236.867 10 0 61018 38700.00000 0 3918395.007 -9919448.196 23215971.316 10 0 61018 39600.00000 0 6617141.436 -9033827.933 22956997.529 10 0 61018 40500.00000 0 9318226.046 -8367019.538 22254002.121 10 0 61018 41400.00000 0 11951679.841 -7924644.844 21120233.706 10 0 61018 42300.00000 0 14448535.936 -7699815.568 19577277.464 10 0 61018 43200.00000 0 16743487.039 -7673536.998 17654670.615 10 0 61018 44100.00000 0 18777410.106 -7815634.310 15389363.407 10 0 61018 45000.00000 0 20499653.408 -8086165.078 12825033.158 10 0 61018 45900.00000 0 21869989.952 -8437260.864 10011261.975 10 0 61018 46800.00000 0 22860154.055 -8815322.050 7002591.851 10 0 61018 47700.00000 0 23454894.446 -9163474.306 3857473.946 10 0 61018 48600.00000 0 23652497.132 -9424182.828 637131.729 10 0 61018 49500.00000 0 23464753.475 -9541912.718 -2595639.797 10 0 61018 50400.00000 0 22916372.619 -9465720.726 -5777714.379 10 0 61018 51300.00000 0 22043861.485 -9151665.670 -8846888.382 10 0 61018 52200.00000 0 20893918.958 -8564931.927 -11743121.493 10 0 61018 53100.00000 0 19521412.341 -7681572.393 -14409737.358 10 0 61018 54000.00000 0 17987022.730 -6489793.604 -16794557.929 10 0 61018 54900.00000 0 16354660.683 -4990725.654 -18850946.844 10 0 61018 55800.00000 0 14688763.632 -3198642.057 -20538739.183 10 0 61018 56700.00000 0 13051591.591 -1140618.899 -21825037.849 10 0 61018 57600.00000 0 11500637.408 1144352.891 -22684860.066 10 0 61018 58500.00000 0 10086262.392 3606764.472 -23101621.068 10 0 61018 59400.00000 0 8849657.763 6188435.552 -23067446.039 10 0 61018 60300.00000 0 7821217.601 8824731.579 -22583305.225 10 0 61018 61200.00000 0 7019390.639 11447057.248 -21658971.126 10 0 61018 62100.00000 0 6450057.156 13985520.655 -20312800.521 10 0 61018 63000.00000 0 6106454.324 16371655.768 -18571347.608 10 0 61018 63900.00000 0 5969649.828 18541089.158 -16468818.008 10 0 61018 64800.00000 0 6009540.231 20436040.016 -14046376.294 10 0 61018 65700.00000 0 6186328.590 22007550.300 -11351322.407 10 0 61018 66600.00000 0 6452415.956 23217353.796 -8436154.606 10 0 61018 67500.00000 0 6754624.587 24039308.658 -5357538.372 10 0 61018 68400.00000 0 7036657.464 24460336.563 -2175202.088 10 0 61018 69300.00000 0 7241689.607 24480832.466 1049218.728 10 0 61018 70200.00000 0 7314981.964 24114530.863 4253366.390 10 0 61018 71100.00000 0 7206408.556 23387837.016 7375352.991 10 0 61018 72000.00000 0 6872791.756 22338653.190 10354937.394 10 0 61018 72900.00000 0 6279949.126 21014750.287 13134666.091 10 0 61018 73800.00000 0 5404367.332 19471753.270 15660957.819 10 0 61018 74700.00000 0 4234434.228 17770824.049 17885113.092 10 0 61018 75600.00000 0 2771178.377 15976137.326 19764231.508 10 0 61018 76500.00000 0 1028484.939 14152252.556 21262021.190 10 0 61018 77400.00000 0 -967221.926 12361489.191 22349486.639 10 0 61018 78300.00000 0 -3177818.736 10661411.996 23005483.147 10 0 61018 79200.00000 0 -5554812.187 9102528.791 23217127.932 10 0 61018 80100.00000 0 -8041106.460 7726294.563 22980060.215 10 0 61018 81000.00000 0 -10573138.588 6563503.828 22298544.610 10 0 61018 81900.00000 0 -13083296.953 5633137.796 21185414.498 10 0 61018 82800.00000 0 -15502525.866 4941714.869 19661854.469 10 0 61018 83700.00000 0 -17763010.771 4483172.766 17757023.533 10 0 61018 84600.00000 0 -19800834.371 4239289.027 15507523.549 10 0 61018 85500.00000 0 -21558493.817 4180624.407 12956720.270 10 0 61019 0.00000 0 -22987173.664 4267951.712 10153927.744 10 0 61019 900.00000 0 -24048678.964 4454111.884 7153468.046 10 0 61019 1800.00000 0 -24716943.630 4686220.178 4013626.845 10 0 61019 2700.00000 0 -24979050.634 4908129.856 795519.292 10 0 61019 3600.00000 0 -24835716.321 5063048.497 -2438107.943 10 0 61019 4500.00000 0 -24301216.577 5096194.560 -5624115.623 10 0 61019 5400.00000 0 -23402755.648 4957379.155 -8700225.786 10 0 61019 6300.00000 0 -22179302.811 4603400.406 -11606263.759 10 0 61019 7200.00000 0 -20679945.562 4000145.357 -14285361.373 10 0 61019 8100.00000 0 -18961829.320 3124306.816 -16685095.182 10 0 61019 9000.00000 0 -17087771.912 1964639.183 -18758534.829 10 0 61019 9900.00000 0 -15123655.480 522697.488 -20465178.870 10 0 61019 10800.00000 0 -13135708.025 -1186973.408 -21771758.097 10 0 61019 11700.00000 0 -11187791.317 -3137208.451 -22652889.723 10 0 61019 12600.00000 0 -9338811.235 -5289135.317 -23091569.314 10 0 61019 13500.00000 0 -7640360.608 -7593591.605 -23079491.314 10 0 61019 14400.00000 0 -6134693.921 -9992985.540 -22617192.905 10 0 61019 15300.00000 0 -4853118.273 -12423520.607 -21714019.895 10 0 61019 16200.00000 0 -3814866.426 -14817689.357 -20387917.196 10 0 61019 17100.00000 0 -3026496.669 -17106930.707 -18665050.036 10 0 61019 18000.00000 0 -2481841.377 -19224338.728 -16579265.430 10 0 61019 18900.00000 0 -2162502.733 -21107309.476 -14171406.502 10 0 61019 19800.00000 0 -2038870.887 -22700015.802 -11488494.873 10 0 61019 20700.00000 0 -2071618.121 -23955607.984 -8582798.648 10 0 61019 21600.00000 0 -2213602.967 -24838050.210 -5510805.392 10 0 61019 22500.00000 0 -2412101.657 -25323518.670 -2332120.819 10 0 61019 23400.00000 0 -2611271.331 -25401305.601 891685.012 10 0 61019 24300.00000 0 -2754740.542 -25074194.477 4098261.805 10 0 61019 25200.00000 0 -2788218.162 -24358293.331 7225671.182 10 0 61019 26100.00000 0 -2662011.694 -23282335.395 10213564.873 10 0 61019 27000.00000 0 -2333350.496 -21886477.891 13004327.798 10 0 61019 27900.00000 0 -1768417.804 -20220649.726 15544165.826 10 0 61019 28800.00000 0 -944007.804 -18342516.909 17784119.344 10 0 61019 29700.00000 0 151260.607 -16315149.460 19680985.356 10 0 61019 30600.00000 0 1516223.653 -14204485.180 21198132.475 10 0 61019 31500.00000 0 3136976.533 -12076693.485 22306194.974 10 0 61019 32400.00000 0 4987210.788 -9995546.230 22983633.939 10 0 61019 33300.00000 0 7029073.278 -8019902.186 23217155.613 10 0 61019 34200.00000 0 9214513.914 -6201407.422 23001979.031 10 0 61019 35100.00000 0 11487069.593 -4582505.367 22341947.197 10 0 61019 36000.00000 0 13784013.863 -3194838.257 21249478.364 10 0 61019 36900.00000 0 16038786.518 -2058106.336 19745356.367 10 0 61019 37800.00000 0 18183605.215 -1179432.966 17858361.566 10 0 61019 38700.00000 0 20152152.739 -553263.470 15624746.700 10 0 61019 39600.00000 0 21882229.260 -161803.773 13087564.930 10 0 61019 40500.00000 0 23318259.110 24017.539 10295860.358 10 0 61019 41400.00000 0 24413546.375 43102.252 7303734.439 10 0 61019 42300.00000 0 25132182.935 -57689.905 4169304.793 10 0 61019 43200.00000 0 25450526.284 -225760.926 953575.831 10 0 61019 44100.00000 0 25358181.984 -405247.509 -2280756.821 10 0 61019 45000.00000 0 24858446.338 -539641.583 -5470543.869 10 0 61019 45900.00000 0 23968187.894 -574445.355 -8553436.064 10 0 61019 46800.00000 0 22717170.688 -459745.511 -11469127.410 10 0 61019 47700.00000 0 21146846.551 -152594.145 -14160560.895 10 0 61019 48600.00000 0 19308667.180 380908.040 -16575070.470 10 0 61019 49500.00000 0 17261987.827 1163917.855 -18665434.402 10 0 61019 50400.00000 0 15071652.429 2207619.681 -20390817.106 10 0 61019 51300.00000 0 12805363.870 3510513.661 -21717579.423 10 0 61019 52200.00000 0 10530952.135 5058253.448 -22619940.453 10 0 61019 53100.00000 0 8313657.257 6824040.780 -23080477.711 10 0 61019 54000.00000 0 6213542.608 8769559.910 -23090456.186 10 0 61019 54900.00000 0 4283147.817 10846411.513 -22649980.902 10 0 61019 55800.00000 0 2565479.562 12997984.353 -21767971.462 10 0 61019 56700.00000 0 1092423.184 15161684.452 -20461960.958 10 0 61019 57600.00000 0 -116360.504 17271426.729 -18757725.210 10 0 61019 58500.00000 0 -1054010.021 19260283.420 -16688751.737 10 0 61019 59400.00000 0 -1726489.201 21063177.649 -14295560.870 10 0 61019 60300.00000 0 -2152067.265 22619509.351 -11624894.129 10 0 61019 61200.00000 0 -2360278.780 23875604.294 -8728787.304 10 0 61019 62100.00000 0 -2390410.908 24786885.108 -5663547.535 10 0 61019 63000.00000 0 -2289584.631 25319675.472 -2488655.076 10 0 61019 63900.00000 0 -2110513.002 25452564.386 734388.492 10 0 61019 64800.00000 0 -1909032.138 25177276.074 3943243.435 10 0 61019 65700.00000 0 -1741509.371 24499011.667 7075924.093 10 0 61019 66600.00000 0 -1662237.224 23436250.812 10071978.262 10 0 61019 67500.00000 0 -1720921.730 22020023.017 12873632.419 10 0 61019 68400.00000 0 -1960369.228 20292679.983 15426882.552 10 0 61019 69300.00000 0 -2414467.107 18306220.412 17682511.718 10 0 61019 70200.00000 0 -3106541.748 16120236.145 19597016.915 10 0 61019 71100.00000 0 -4048161.454 13799563.534 21133429.603 10 0 61019 72000.00000 0 -5238434.182 11411735.380 22262015.884 10 0 61019 72900.00000 0 -6663830.027 9024336.574 22960844.366 10 0 61019 73800.00000 0 -8298537.417 6702370.366 23216211.662 10 0 61019 74700.00000 0 -10105340.558 4505741.913 23022917.507 10 0 61019 75600.00000 0 -12036984.689 2486961.270 22384383.686 10 0 61019 76500.00000 0 -14037975.846 689159.588 21312613.165 10 0 61019 77400.00000 0 -16046743.788 -855499.798 19827988.287 10 0 61019 78300.00000 0 -17998081.385 -2126949.209 17958909.447 10 0 61019 79200.00000 0 -19825761.521 -3117835.590 15741278.402 10 0 61019 80100.00000 0 -21465224.171 -3833603.200 13217833.366 10 0 61019 81000.00000 0 -22856222.135 -4292034.777 10437345.992 10 0 61019 81900.00000 0 -23945314.308 -4522268.462 7453693.534 10 0 61019 82800.00000 0 -24688100.491 -4563330.168 4324822.527 10 0 61019 83700.00000 0 -25051101.484 -4462242.096 1111623.254 10 0 61019 84600.00000 0 -25013202.390 -4271786.904 -2123263.121 10 0 61019 85500.00000 0 -24566595.043 -4048022.681 -5316680.626 10 0 61020 0.00000 0 -23717176.782 -3847655.438 -8406211.764 10 0 61020 900.00000 0 -22484385.483 -3725382.751 -11331422.957 10 0 61020 1800.00000 0 -20900477.119 -3731324.412 -14035071.065 10 0 61020 2700.00000 0 -19009273.755 -3908651.971 -16464250.208 10 0 61020 3600.00000 0 -16864435.771 -4291521.268 -18571449.707 10 0 61020 4500.00000 0 -14527331.578 -4903398.440 -20315501.858 10 0 61020 5400.00000 0 -12064596.069 -5755852.666 -21662399.053 10 0 61020 6300.00000 0 -9545482.386 -6847868.353 -22585963.227 10 0 61020 7200.00000 0 -7039120.210 -8165706.547 -23068354.180 10 0 61020 8100.00000 0 -4611797.287 -9683321.290 -23100407.207 10 0 61020 9000.00000 0 -2324379.222 -11363312.523 -22681794.393 10 0 61020 9900.00000 0 -229975.883 -13158373.959 -21821007.883 10 0 61020 10800.00000 0 1628048.584 -15013173.275 -20535167.299 10 0 61020 11700.00000 0 3217640.592 -16866583.831 -18849657.099 10 0 61020 12600.00000 0 4519133.892 -18654172.550 -16797603.103 10 0 61020 13500.00000 0 5525796.630 -20310838.370 -14419200.484 10 0 61020 14400.00000 0 6243829.672 -21773490.006 -11760908.184 10 0 61020 15300.00000 0 6691820.358 -22983650.801 -8874527.146 10 0 61020 16200.00000 0 6899678.617 -23889882.278 -5816181.543 10 0 61020 17100.00000 0 6907103.702 -24449926.283 -2645223.665 10 0 61020 18000.00000 0 6761648.860 -24632477.946 576915.829 10 0 61020 18900.00000 0 6516467.381 -24418517.459 3787910.098 10 0 61020 19800.00000 0 6227835.892 -23802147.362 6925728.474 10 0 61020 20700.00000 0 5952559.249 -22790902.481 9929816.967 10 0 61020 21600.00000 0 5745365.445 -21405521.286 12742245.586 10 0 61020 22500.00000 0 5656398.719 -19679189.397 15308802.307 10 0 61020 23400.00000 0 5728914.508 -17656286.905 17580014.549 10 0 61020 24300.00000 0 5997271.263 -15390691.237 19512080.793 10 0 61020 25200.00000 0 6485301.836 -12943704.806 21067696.585 10 0 61020 26100.00000 0 7205131.743 -10381691.268 22216760.849 10 0 61020 27000.00000 0 8156493.647 -7773515.833 22936950.423 10 0 61020 27900.00000 0 9326567.469 -5187892.786 23214152.697 10 0 61020 28800.00000 0 10690354.583 -2690747.265 23042748.245 10 0 61020 29700.00000 0 12211572.991 -342697.953 22425737.491 10 0 61020 30600.00000 0 13844039.366 1803237.007 21374707.728 10 0 61020 31500.00000 0 15533483.756 3703616.981 19909639.185 10 0 61020 32400.00000 0 17219724.708 5326157.040 18058551.454 10 0 61020 33300.00000 0 18839117.049 6650841.318 15856994.268 10 0 61020 34200.00000 0 20327172.296 7670523.960 13347389.619 10 0 61020 35100.00000 0 21621243.366 8390990.884 10578235.226 10 0 61020 36000.00000 0 22663161.280 8830477.875 7603182.403 10 0 61020 36900.00000 0 23401712.158 9018663.376 4480004.623 10 0 61020 37800.00000 0 23794848.394 8995176.910 1269475.840 10 0 61020 38700.00000 0 23811538.088 8807685.226 -1965819.645 10 0 61020 39600.00000 0 23433171.460 8509637.074 -5162721.715 10 0 61020 40500.00000 0 22654461.486 8157762.962 -8258747.744 10 0 61020 41400.00000 0 21483797.553 7809437.671 -11193338.017 10 0 61020 42300.00000 0 19943034.611 7520019.839 -13909066.297 10 0 61020 43200.00000 0 18066724.956 7340284.492 -16352789.182 10 0 61020 44100.00000 0 15900824.197 7314060.511 -18476709.189 10 0 61020 45000.00000 0 13500926.095 7476176.221 -20239328.455 10 0 61020 45900.00000 0 10930101.510 7850802.618 -21606272.715 10 0 61020 46800.00000 0 8256433.824 8450266.217 -22550968.353 10 0 61020 47700.00000 0 5550356.155 9274382.677 -23055158.878 10 0 61020 48600.00000 0 2881903.782 10310339.432 -23109251.079 10 0 61020 49500.00000 0 317998.200 11533131.570 -22712484.998 10 0 61020 50400.00000 0 -2080122.786 12906531.134 -21872925.865 10 0 61020 51300.00000 0 -4259221.625 14384547.182 -20607279.963 10 0 61020 52200.00000 0 -6176028.543 15913313.097 -18940540.086 10 0 61020 53100.00000 0 -7798779.845 17433319.742 -16905469.607 10 0 61020 54000.00000 0 -9108265.635 18881898.939 -14541937.363 10 0 61020 54900.00000 0 -10098346.744 20195851.738 -11896118.157 10 0 61020 55800.00000 0 -10775923.232 21314110.534 -9019576.183 10 0 61020 56700.00000 0 -11160359.882 22180323.485 -5968250.457 10 0 61020 57600.00000 0 -11282396.666 22745253.600 -2801362.883 10 0 61020 58500.00000 0 -11182593.246 22968893.350 419729.413 10 0 61020 59400.00000 0 -10909375.455 22822207.969 3632715.239 10 0 61020 60300.00000 0 -10516767.540 22288436.613 6775521.760 10 0 61020 61200.00000 0 -10061906.179 21363898.935 9787496.081 10 0 61020 62100.00000 0 -9602440.534 20058275.137 12610554.699 10 0 61020 63000.00000 0 -9193926.512 18394348.961 15190280.458 10 0 61020 63900.00000 0 -8887323.136 16407224.831 17476947.945 10 0 61020 64800.00000 0 -8726694.204 14143051.552 19426459.824 10 0 61020 65700.00000 0 -8747209.788 11657304.330 21001178.256 10 0 61020 66600.00000 0 -8973529.845 9012694.542 22170637.267 10 0 61020 67500.00000 0 -9418636.727 6276791.343 22912123.926 10 0 61020 68400.00000 0 -10083165.472 3519450.569 23211118.046 10 0 61020 69300.00000 0 -10955260.772 810154.344 23061582.250 10 0 61020 70200.00000 0 -12010968.454 -1784631.420 22466096.325 10 0 61020 71100.00000 0 -13215147.739 -4203974.717 21435832.068 10 0 61020 72000.00000 0 -14522869.309 -6394767.755 19990367.201 10 0 61020 72900.00000 0 -15881244.084 -8313695.813 18157339.522 10 0 61020 73800.00000 0 -17231609.420 -9928802.908 15971945.175 10 0 61020 74700.00000 0 -18511983.846 -11220588.275 13476287.853 10 0 61020 75600.00000 0 -19659689.264 -12182586.449 10718588.781 10 0 61020 76500.00000 0 -20614031.322 -12821404.837 7752270.425 10 0 61020 77400.00000 0 -21318924.892 -13156215.173 4634929.996 10 0 61020 78300.00000 0 -21725352.603 -13217718.468 1427221.732 10 0 61020 79200.00000 0 -21793550.358 -13046625.786 -1808330.414 10 0 61020 80100.00000 0 -21494824.398 -12691718.412 -5008565.709 10 0 61020 81000.00000 0 -20812919.678 -12207569.826 -8110939.643 10 0 61020 81900.00000 0 -19744878.263 -11652027.126 -11054770.352 10 0 61020 82800.00000 0 -18301348.345 -11083560.692 -13782451.512 10 0 61020 83700.00000 0 -16506328.434 -10558597.087 -16240605.275 10 0 61020 84600.00000 0 -14396355.938 -10128951.203 -18381150.105 10 0 61020 85500.00000 0 -12019173.788 -9839469.431 -20162260.318 99